Location: Springfield
(37.2150°N, 93.2980°W)
Time: 07:56:08
(UTC-06:00)

Amateur Radio Satellites - All Passes

Search period start: 18 January 2018 07:26
Search period end: 19 January 2018 07:26
Location: Springfield, 37.2150°N, 93.2980°W

Satellite Date Start Highest point End Downlink Frequencies (MHz)
Time Altitude Azimuth
SO-50 18 Jan 07:27:33 07:30:42 19° 313° (NW) 07:33:54 436.795
FO-29 18 Jan 07:39:25 07:46:37 90° 75° (ENE) 07:52:59 435.910
Oscar 11 18 Jan 07:45:32 07:48:29 18° 93° (E) 07:51:26 .
XW-2A 18 Jan 07:50:43 07:53:58 47° 99° (E) 07:57:11 145.665 - 145.685
CUBEBUG 2 18 Jan 07:52:09 07:56:47 53° 286° (WNW) 08:01:23 437.445
AAUSAT CUBESAT 2 18 Jan 07:57:36 08:01:41 73° 101° (E) 08:05:45 437.432
UNISAT 6 18 Jan 07:59:50 08:01:55 13° 64° (ENE) 08:04:01 437.425
UWE-3 18 Jan 08:04:05 08:08:45 70° 284° (WNW) 08:13:21 435.000/436.395/437.385
SEEDS 18 Jan 08:06:38 08:10:24 34° 288° (WNW) 08:14:08 437.485
CUTE 1.7 + AOD 2 18 Jan 08:13:47 08:16:37 18° 292° (WNW) 08:19:26 437.475
RS-15 18 Jan 08:30:48 08:43:01 74° 115° (ESE) 08:55:09 29.354- 29.394
ZACube-1 18 Jan 08:34:56 08:39:27 62° 285° (WNW) 08:43:53 437.345
YUBILEINY 18 Jan 08:35:56 08:37:41 11° 59° (ENE) 08:39:24 435.215
HO-68 18 Jan 08:40:25 08:46:17 28° 298° (WNW) 08:52:08 435.675
AO-73 18 Jan 08:43:42 08:48:10 56° 286° (WNW) 08:52:33 145.935
FALCONSAT 3 18 Jan 08:44:22 08:47:57 52° 191° (S) 08:51:31 435.103
DELFI C3 18 Jan 09:04:01 09:07:11 23° 96° (E) 09:10:21 145.870
PRISM 18 Jan 09:08:16 09:10:38 15° 67° (ENE) 09:13:00 437.425
EO-88 18 Jan 09:15:10 09:16:30 12° 92° (E) 09:17:50 145.990 - 145.960
TIGRISAT 18 Jan 09:19:14 09:23:35 87° 253° (WSW) 09:28:06 435.000
Oscar 11 18 Jan 09:20:46 09:24:41 34° 288° (WNW) 09:28:34 .
FO-29 18 Jan 09:29:03 09:32:05 13° 269° (W) 09:34:59 435.910
UNISAT 6 18 Jan 09:33:50 09:38:06 53° 261° (W) 09:42:29 437.425
AIST 2D 18 Jan 09:38:10 09:39:19 11° 68° (ENE) 09:40:29 435.315
PCSat 18 Jan 10:01:16 10:06:25 49° 112° (ESE) 10:11:38 145.827
O/OREOS (USA 219) 18 Jan 10:03:33 10:06:36 18° 59° (ENE) 10:09:38 437.305
Max Valier Satellite 18 Jan 10:20:44 10:24:20 50° 285° (WNW) 10:27:53 145.860
FALCONSAT 3 18 Jan 10:23:55 10:26:38 20° 205° (SSW) 10:29:21 435.103
BEESAT 3 18 Jan 10:24:58 10:28:56 83° 300° (WNW) 10:32:56 437.485
YUBILEINY 18 Jan 10:27:39 10:36:20 66° 80° (E) 10:44:56 435.215
POLYITAN 1 18 Jan 10:33:40 10:36:41 19° 68° (ENE) 10:39:43 437.675
DELFI C3 18 Jan 10:38:46 10:41:47 22° 290° (WNW) 10:44:48 145.870
PRISM 18 Jan 10:41:47 10:45:33 37° 261° (W) 10:49:21 437.425
LO-87 18 Jan 10:42:59 10:45:32 18° 95° (E) 10:48:04 145.935 - 145.965
RS-15 18 Jan 10:45:30 10:56:33 37° 318° (NW) 11:07:29 29.354- 29.394
EO-88 18 Jan 10:46:55 10:50:15 35° 287° (WNW) 10:53:33 145.990 - 145.960
NANOSAT C BR1 18 Jan 10:51:36 10:55:07 27° 70° (ENE) 10:58:41 145.865
QB50P2 18 Jan 11:01:54 11:05:56 46° 73° (ENE) 11:10:00 145.880/145.840
BEESAT 2 18 Jan 11:05:33 11:09:30 67° 118° (ESE) 11:13:31 435.950
ESTCUBE 1 18 Jan 11:07:13 11:11:10 30° 97° (E) 11:15:05 437.505/2401.250
AIST 2D 18 Jan 11:08:49 11:12:06 36° 262° (W) 11:15:24 435.315
EO-79 18 Jan 11:33:43 11:37:56 82° 259° (W) 11:42:10 145.935-145.965
JUGNU 18 Jan 11:35:44 11:37:30 11° 171° (S) 11:39:16 437.505
DUCHIFAT 1 18 Jan 11:36:18 11:40:28 79° 76° (ENE) 11:44:41 145.980
SPROUT 18 Jan 11:40:46 11:43:21 15° 93° (E) 11:45:54 437.525
O/OREOS (USA 219) 18 Jan 11:41:58 11:46:09 40° 255° (WSW) 11:50:20 437.305
PCSat 18 Jan 11:45:49 11:50:03 23° 309° (NW) 11:54:20 145.827
POLYITAN 1 18 Jan 12:08:27 12:12:12 31° 263° (W) 12:16:01 437.675
Gurwin Techsat 1B 18 Jan 12:11:00 12:14:58 22° 66° (ENE) 12:18:57 435.225
LO-87 18 Jan 12:15:55 12:18:50 23° 289° (WNW) 12:21:46 145.935 - 145.965
YUBILEINY 18 Jan 12:25:52 12:32:18 24° 278° (W) 12:38:43 435.215
NANOSAT C BR1 18 Jan 12:27:30 12:30:45 22° 265° (W) 12:34:04 145.865
AO-85 18 Jan 12:32:09 12:36:02 75° 117° (ESE) 12:40:11 145.980
QB50P2 18 Jan 12:40:01 12:41:55 13° 268° (W) 12:43:51 145.880/145.840
AO-7 18 Jan 12:41:53 12:45:47 14° 49° (NE) 12:49:41 .
ESTCUBE 1 18 Jan 12:44:18 12:47:46 22° 292° (WNW) 12:51:12 437.505/2401.250
BEESAT 2 18 Jan 12:46:00 12:47:39 12° 315° (NW) 12:49:19 435.950
Oscar 19 18 Jan 12:46:50 12:51:57 64° 74° (ENE) 12:57:07 437.125/150
BUGSAT 1 18 Jan 12:49:17 12:53:18 67° 259° (W) 12:57:23 437.445
VELOX 1 18 Jan 12:55:44 13:00:05 60° 101° (E) 13:04:24 145.980
RS-15 18 Jan 13:07:10 13:14:14 17° 351° (N) 13:21:09 29.354- 29.394
AO-91 18 Jan 13:11:44 13:15:04 56° 259° (W) 13:18:24 145.960
SPROUT 18 Jan 13:15:21 13:19:21 39° 288° (WNW) 13:23:20 437.525
50 SAT 18 Jan 13:21:11 13:22:48 13° 95° (E) 13:24:24 437.505
DX 1 18 Jan 13:21:47 13:25:01 20° 95° (E) 13:28:14 434.975-435.025
JUGNU 18 Jan 13:22:48 13:25:38 14° 181° (S) 13:28:28 437.505
Gurwin Techsat 1B 18 Jan 13:49:33 13:54:35 43° 261° (W) 13:59:38 435.225
ITAMSAT 1 18 Jan 13:50:20 13:52:26 13° 61° (ENE) 13:54:33 435.822/435.867
AO-85 18 Jan 14:15:41 14:17:02 11° 318° (NW) 14:18:25 145.980
SO-50 18 Jan 14:18:54 14:22:54 26° 51° (NE) 14:26:54 436.795
MOZHAYETS 4 18 Jan 14:24:25 14:27:31 17° 93° (E) 14:30:35
AO-7 18 Jan 14:28:45 14:37:00 68° 68° (ENE) 14:45:18 .
Oscar 19 18 Jan 14:29:09 14:31:39 13° 269° (W) 14:34:10 437.125/150
VELOX 1 18 Jan 14:34:25 14:35:58 12° 296° (WNW) 14:37:30 145.980
UKube-1 18 Jan 14:51:10 14:55:24 61° 286° (WNW) 14:59:38 .
50 SAT 18 Jan 14:52:01 14:54:28 21° 289° (WNW) 14:56:55 437.505
DX 1 18 Jan 14:57:23 15:01:11 31° 290° (WNW) 15:04:59 434.975-435.025
DOVE 4 18 Jan 15:02:58 15:04:27 12° 66° (ENE) 15:05:55 437.250
ITUPSAT 1 18 Jan 15:03:32 15:07:31 25° 96° (E) 15:11:29 437.325
M-CUBED/EXP-1 PRIME 18 Jan 15:12:45 15:16:25 26° 66° (ENE) 15:19:55 437.505
JUGNU 18 Jan 15:13:04 15:13:47 10° 191° (S) 15:14:29 437.505
RS-15 18 Jan 15:24:09 15:33:09 24° 28° (NNE) 15:41:47 29.354- 29.394
ITAMSAT 1 18 Jan 15:26:03 15:31:12 76° 257° (WSW) 15:36:24 435.822/435.867
SRMSAT 18 Jan 15:26:06 15:28:59 14° 176° (S) 15:31:53 437.500
BEESAT 18 Jan 15:44:31 15:49:19 72° 102° (ESE) 15:54:05 436.000
CUBESAT XI-V 18 Jan 15:56:05 16:00:28 41° 98° (E) 16:04:47 437.345
SO-50 18 Jan 15:59:06 16:03:22 34° 246° (WSW) 16:07:40 436.795
MOZHAYETS 4 18 Jan 16:00:28 16:04:47 40° 288° (WNW) 16:09:05
XW-2C 18 Jan 16:22:32 16:23:17 10° 66° (ENE) 16:24:02 145.795 - 145.815
AO-7 18 Jan 16:23:56 16:30:16 24° 265° (W) 16:36:41 .
DOVE 4 18 Jan 16:37:23 16:41:42 54° 260° (W) 16:45:51 437.250
ITUPSAT 1 18 Jan 16:41:05 16:45:17 30° 291° (WNW) 16:49:27 437.325
CUTE-I 18 Jan 16:41:13 16:45:09 22° 65° (ENE) 16:49:06 437.470
M-CUBED/EXP-1 PRIME 18 Jan 16:46:54 16:50:39 26° 258° (WSW) 16:54:15 437.505
XW-2F 18 Jan 16:58:49 17:02:04 27° 72° (ENE) 17:05:19 145.980 - 146.000
NO-84 18 Jan 17:02:08 17:04:52 27° 129° (SE) 17:07:27 435.350 FM
KAITUO 1B 18 Jan 17:02:10 17:05:07 22° 71° (ENE) 17:08:06 145.475/437.950
XW-2D 18 Jan 17:05:47 17:09:20 38° 73° (ENE) 17:12:54 145.860 - 145.880
SRMSAT 18 Jan 17:14:36 17:17:19 13° 186° (S) 17:20:02 437.500
NUDT-PHONESAT 18 Jan 17:17:41 17:21:02 32° 73° (ENE) 17:24:23 437.300
HO-68 18 Jan 17:18:50 17:24:56 32° 64° (ENE) 17:31:03 435.675
XW-2B 18 Jan 17:23:01 17:26:48 61° 76° (ENE) 17:30:35 145.730 - 145.750
BEESAT 18 Jan 17:24:48 17:26:26 12° 298° (WNW) 17:28:03 436.000
CUTE 1.7 + AOD 2 18 Jan 17:28:15 17:31:17 19° 68° (ENE) 17:34:19 437.475
CUBESAT XI-V 18 Jan 17:34:25 17:37:28 18° 294° (WNW) 17:40:30 437.345
RS-15 18 Jan 17:36:33 17:48:16 71° 56° (ENE) 17:59:18 29.354- 29.394
LilacSat-2 18 Jan 17:47:31 17:51:19 54° 261° (W) 17:55:07 437.200
KKS-1 18 Jan 17:48:31 17:53:00 82° 283° (WNW) 17:57:26 437.445
XW-2C 18 Jan 17:53:15 17:56:58 49° 260° (W) 18:00:42 145.795 - 145.815
STARS 18 Jan 18:12:03 18:16:27 68° 101° (ESE) 18:20:51 437.465
CUTE-I 18 Jan 18:19:49 18:24:52 44° 261° (W) 18:29:56 437.470
XW-2A 18 Jan 18:21:13 18:22:29 12° 68° (ENE) 18:23:46 145.665 - 145.685
XW-2F 18 Jan 18:33:34 18:36:08 17° 266° (W) 18:38:42 145.980 - 146.000
KAITUO 1B 18 Jan 18:36:07 18:38:59 21° 265° (W) 18:41:52 145.475/437.950
NO-84 18 Jan 18:39:45 18:42:01 19° 323° (NW) 18:44:12 435.350 FM
Oscar 11 18 Jan 18:39:52 18:41:16 11° 64° (ENE) 18:42:40 .
XW-2D 18 Jan 18:41:56 18:43:38 12° 268° (W) 18:45:18 145.860 - 145.880
BEESAT 3 18 Jan 18:43:43 18:47:05 27° 53° (NE) 18:50:24 437.485
AAUSAT CUBESAT 2 18 Jan 18:45:19 18:49:03 34° 72° (ENE) 18:52:48 437.432
CUBEBUG 2 18 Jan 18:47:34 18:51:51 83° 257° (WSW) 18:56:20 437.445
PCSat 18 Jan 18:51:28 18:56:00 26° 52° (NE) 19:00:32 145.827
NUDT-PHONESAT 18 Jan 18:52:56 18:54:55 14° 267° (W) 18:56:54 437.300
SEEDS 18 Jan 18:55:09 18:59:21 69° 259° (W) 19:03:34 437.485
UWE-3 18 Jan 18:58:20 19:02:39 70° 76° (ENE) 19:07:09 435.000/436.395/437.385
CUTE 1.7 + AOD 2 18 Jan 19:03:01 19:06:51 32° 263° (W) 19:10:42 437.475
HO-68 18 Jan 19:05:33 19:12:22 46° 260° (W) 19:19:13 435.675
BEESAT 2 18 Jan 19:25:28 19:28:34 21° 50° (NE) 19:31:37 435.950
STRAND 1 18 Jan 19:27:30 19:32:32 54° 100° (E) 19:37:34 437.568
ZACube-1 18 Jan 19:27:49 19:32:11 77° 76° (ENE) 19:36:42 437.345
AO-73 18 Jan 19:36:11 19:40:35 83° 77° (ENE) 19:45:06 145.935
DELFI C3 18 Jan 19:49:28 19:50:08 10° 66° (ENE) 19:50:49 145.870
RS-15 18 Jan 19:50:20 19:59:32 30° 257° (WSW) 20:08:29 29.354- 29.394
STARS 18 Jan 19:51:19 19:52:11 10° 297° (WNW) 19:53:03 437.465
XW-2A 18 Jan 19:51:42 19:54:49 33° 262° (W) 19:57:56 145.665 - 145.685
nSIGHT-1 18 Jan 20:08:14 20:10:14 16° 129° (SE) 20:12:15 .
ISS 18 Jan 20:12:04 20:13:13 11° 127° (SE) 20:14:23 437.550
Oscar 11 18 Jan 20:12:33 20:16:50 60° 259° (W) 20:21:10 .
BEESAT 3 18 Jan 20:21:27 20:24:26 21° 248° (WSW) 20:27:22 437.485
AAUSAT CUBESAT 2 18 Jan 20:21:55 20:24:33 16° 267° (W) 20:27:12 437.432
PCSat 18 Jan 20:34:27 20:39:31 41° 249° (WSW) 20:44:32 145.827
FO-29 18 Jan 20:36:26 20:41:39 85° 284° (WNW) 20:46:54 435.910
Max Valier Satellite 18 Jan 20:56:45 21:00:18 45° 75° (ENE) 21:03:53 145.860
BEESAT 2 18 Jan 21:02:46 21:06:18 31° 247° (WSW) 21:09:46 435.950
AO-85 18 Jan 21:04:20 21:09:01 39° 54° (NE) 21:13:57 145.980
STRAND 1 18 Jan 21:08:01 21:11:15 17° 296° (WNW) 21:14:28 437.568
TIGRISAT 18 Jan 21:13:08 21:16:57 24° 95° (E) 21:20:44 435.000
DELFI C3 18 Jan 21:20:34 21:24:22 52° 260° (W) 21:28:12 145.870
EO-88 18 Jan 21:21:27 21:25:03 62° 76° (ENE) 21:28:40 145.990 - 145.960
UNISAT 6 18 Jan 21:27:18 21:31:41 38° 98° (E) 21:36:02 437.425
YUBILEINY 18 Jan 21:35:02 21:38:44 13° 76° (ENE) 21:42:23 435.215
nSIGHT-1 18 Jan 21:43:09 21:46:09 40° 324° (NW) 21:49:10 .
ISS 18 Jan 21:46:05 21:49:17 59° 321° (NW) 21:52:32 437.550
ESTCUBE 1 18 Jan 22:04:52 22:08:22 23° 68° (ENE) 22:11:53 437.505/2401.250
PRISM 18 Jan 22:24:46 22:28:23 30° 98° (E) 22:32:00 437.425
AIST 2D 18 Jan 22:36:10 22:38:25 16° 94° (E) 22:40:40 435.315
AO-85 18 Jan 22:45:07 22:49:18 26° 249° (WSW) 22:53:38 145.980
LO-87 18 Jan 22:48:31 22:52:02 87° 250° (WSW) 22:55:37 145.935 - 145.965
TIGRISAT 18 Jan 22:49:28 22:53:34 31° 290° (WNW) 22:57:40 435.000
UNISAT 6 18 Jan 23:04:40 23:08:05 20° 293° (WNW) 23:11:29 437.425
EO-79 18 Jan 23:21:12 23:24:13 19° 94° (E) 23:27:13 145.935-145.965
DUCHIFAT 1 18 Jan 23:23:36 23:25:57 14° 93° (E) 23:28:18 145.980
ISS 18 Jan 23:25:03 23:26:20 12° 340° (NNW) 23:27:38 437.550
YUBILEINY 18 Jan 23:25:11 23:34:00 81° 95° (E) 23:42:50 435.215
ESTCUBE 1 18 Jan 23:40:58 23:44:58 31° 263° (W) 23:48:59 437.505/2401.250
VELOX 1 18 Jan 23:50:38 23:54:44 40° 72° (ENE) 23:58:50 145.980
POLYITAN 1 18 Jan 23:54:38 23:58:47 46° 99° (E) 00:02:53 437.675
PRISM 19 Jan 00:00:35 00:03:24 18° 292° (WNW) 00:06:14 437.425
SPROUT 19 Jan 00:05:40 00:09:53 71° 258° (WSW) 00:14:09 437.525
AIST 2D 19 Jan 00:08:45 00:11:31 23° 289° (WNW) 00:14:16 435.315
NANOSAT C BR1 19 Jan 00:12:27 00:16:43 66° 102° (ESE) 00:20:56 145.865
O/OREOS (USA 219) 19 Jan 00:13:12 00:17:03 28° 103° (ESE) 00:20:54 437.305
DX 1 19 Jan 00:16:10 00:18:30 14° 65° (ENE) 00:20:50 434.975-435.025
QB50P2 19 Jan 00:24:02 00:28:18 68° 284° (WNW) 00:32:32 145.880/145.840
BUGSAT 1 19 Jan 00:33:33 00:36:42 20° 95° (E) 00:39:50 437.445
EO-79 19 Jan 00:56:10 01:00:00 32° 289° (WNW) 01:03:48 145.935-145.965
DUCHIFAT 1 19 Jan 00:57:45 01:01:46 41° 287° (WNW) 01:05:45 145.980
Oscar 19 19 Jan 01:01:07 01:05:25 26° 96° (E) 01:09:40 437.125/150
AO-91 19 Jan 01:01:49 01:05:47 30° 98° (E) 01:10:04 145.960
NO-84 19 Jan 01:12:30 01:15:24 76° 45° (NE) 01:18:29 435.350 FM
50 SAT 19 Jan 01:13:28 01:16:28 54° 75° (ENE) 01:19:29 437.505
MOZHAYETS 4 19 Jan 01:25:01 01:27:25 14° 65° (ENE) 01:29:49
YUBILEINY 19 Jan 01:25:46 01:31:46 20° 294° (WNW) 01:37:49 435.215
VELOX 1 19 Jan 01:28:36 01:31:18 16° 266° (W) 01:34:00 145.980
POLYITAN 1 19 Jan 01:31:50 01:34:07 14° 294° (WNW) 01:36:24 437.675
UKube-1 19 Jan 01:42:54 01:47:12 84° 74° (ENE) 01:51:30 .
DX 1 19 Jan 01:50:06 01:54:15 46° 260° (W) 01:58:25 434.975-435.025
NANOSAT C BR1 19 Jan 01:51:32 01:51:48 10° 296° (WNW) 01:52:03 145.865
O/OREOS (USA 219) 19 Jan 01:52:43 01:56:24 24° 299° (WNW) 02:00:05 437.305
Gurwin Techsat 1B 19 Jan 02:07:30 02:12:51 88° 105° (ESE) 02:18:09 435.225
BUGSAT 1 19 Jan 02:08:19 02:12:01 30° 289° (WNW) 02:15:43 437.445
ITUPSAT 1 19 Jan 02:08:22 02:12:09 24° 67° (ENE) 02:15:58 437.325
AO-7 19 Jan 02:33:55 02:40:24 24° 95° (E) 02:46:49 .
nSIGHT-1 19 Jan 02:36:08 02:37:53 14° 24° (NNE) 02:39:38 .
AO-91 19 Jan 02:38:30 02:42:05 24° 289° (WNW) 02:45:55 145.960
Oscar 19 19 Jan 02:40:07 02:44:43 33° 291° (WNW) 02:49:16 437.125/150
ISS 19 Jan 02:40:27 02:41:53 12° 21° (NNE) 02:43:20 437.550
BEESAT 19 Jan 02:48:30 02:53:12 65° 74° (ENE) 02:57:56 436.000
CUBESAT XI-V 19 Jan 02:57:07 03:01:17 32° 71° (ENE) 03:05:27 437.345
MOZHAYETS 4 19 Jan 02:59:33 03:04:03 54° 260° (W) 03:08:37
ITAMSAT 1 19 Jan 03:41:05 03:46:02 44° 100° (E) 03:51:00 435.822/435.867
ITUPSAT 1 19 Jan 03:45:32 03:49:46 32° 263° (W) 03:54:04 437.325
Gurwin Techsat 1B 19 Jan 03:50:29 03:51:59 11° 300° (WNW) 03:53:31 435.225
nSIGHT-1 19 Jan 04:11:15 04:14:26 90° 313° (NW) 04:17:37 .
ISS 19 Jan 04:15:38 04:18:54 64° 39° (NE) 04:22:08 437.550
AO-7 19 Jan 04:25:22 04:33:39 67° 292° (WNW) 04:41:53 .
M-CUBED/EXP-1 PRIME 19 Jan 04:27:31 04:29:51 18° 100° (E) 04:32:08 437.505
BEESAT 19 Jan 04:29:54 04:31:21 11° 269° (W) 04:32:48 436.000
SO-50 19 Jan 04:33:54 04:35:19 11° 107° (ESE) 04:36:44 436.795
CUBESAT XI-V 19 Jan 04:34:58 04:38:38 22° 265° (W) 04:42:19 437.345
DOVE 4 19 Jan 04:37:24 04:41:32 42° 99° (E) 04:45:52 437.250
KKS-1 19 Jan 04:44:04 04:48:26 70° 75° (ENE) 04:52:51 437.445
FALCONSAT 3 19 Jan 04:52:37 04:55:53 30° 160° (SSE) 04:59:09 435.103
STARS 19 Jan 05:06:19 05:10:26 45° 73° (ENE) 05:14:36 437.465
ITAMSAT 1 19 Jan 05:21:22 05:25:09 21° 295° (WNW) 05:28:56 435.822/435.867
LilacSat-2 19 Jan 05:23:35 05:26:07 17° 94° (E) 05:28:38 437.200
XW-2C 19 Jan 05:28:27 05:31:04 18° 94° (E) 05:33:40 145.795 - 145.815
ISS 19 Jan 05:54:07 05:54:57 11° 233° (SW) 05:55:47 437.550
M-CUBED/EXP-1 PRIME 19 Jan 06:01:43 06:04:11 19° 296° (WNW) 06:06:36 437.505
XW-2F 19 Jan 06:06:01 06:09:40 51° 99° (E) 06:13:16 145.980 - 146.000
KAITUO 1B 19 Jan 06:08:03 06:11:33 39° 98° (E) 06:15:00 145.475/437.950
SO-50 19 Jan 06:10:45 06:15:10 63° 303° (WNW) 06:19:39 436.795
XW-2D 19 Jan 06:13:48 06:17:35 77° 102° (ESE) 06:21:18 145.860 - 145.880
DOVE 4 19 Jan 06:16:17 06:18:55 16° 292° (WNW) 06:21:36 437.250
AO-7 19 Jan 06:21:06 06:24:50 14° 311° (NW) 06:28:35 .
NUDT-PHONESAT 19 Jan 06:22:46 06:26:24 60° 100° (E) 06:30:00 437.300
FALCONSAT 3 19 Jan 06:31:04 06:34:43 64° 174° (S) 06:38:21 435.103
XW-2B 19 Jan 06:31:23 06:35:06 64° 284° (WNW) 06:38:47 145.730 - 145.750
HO-68 19 Jan 06:35:19 06:41:57 39° 99° (E) 06:48:32 435.675
CUTE-I 19 Jan 06:38:32 06:43:53 87° 104° (ESE) 06:49:13 437.470
CUBEBUG 2 19 Jan 06:40:36 06:44:34 26° 95° (E) 06:48:30 437.445
STRAND 1 19 Jan 06:41:10 06:46:10 62° 74° (ENE) 06:51:12 437.568
SEEDS 19 Jan 06:41:31 06:44:44 22° 95° (E) 06:47:57 437.485
STARS 19 Jan 06:44:43 06:46:58 14° 267° (W) 06:49:15 437.465
FO-29 19 Jan 06:45:35 06:51:47 35° 69° (ENE) 06:57:21 435.910
CUTE 1.7 + AOD 2 19 Jan 06:49:22 06:53:27 47° 99° (E) 06:57:29 437.475
UWE-3 19 Jan 06:50:53 06:54:04 18° 93° (E) 06:57:13 435.000/436.395/437.385
LilacSat-2 19 Jan 06:57:10 07:00:22 26° 289° (WNW) 07:03:32 437.200
XW-2C 19 Jan 07:02:05 07:05:11 25° 289° (WNW) 07:08:16 145.795 - 145.815
XW-2A 19 Jan 07:15:50 07:17:47 15° 94° (E) 07:19:43 145.665 - 145.685
ZACube-1 19 Jan 07:19:09 07:22:18 18° 93° (E) 07:25:24 437.345
